Alexandria, Egypt

1:22 PM EET on April 26, 2018 (GMT +0200)
Alexandria

Weather History for HEAX - May, 2013

Change the Weather History Date:

Sunday, May 19, 2013

  Actual Average Record
Temperature  
Mean Temperature 84 °F -  
Max Temperature 97 °F 80 °F 100 °F (2007)
Min Temperature 71 °F 66 °F 55 °F (2006)
Cooling Degree Days 19    
Growing Degree Days 34 (Base 50)    
Moisture  
Dew Point 64 °F    
Average Humidity 64    
Maximum Humidity 88    
Minimum Humidity 21    
Precipitation  
Precipitation 0.00 in 0.00 in - ()
Sea Level Pressure  
Sea Level Pressure 29.89 in    
Wind  
Wind Speed 6 mph ()    
Max Wind Speed 23 mph    
Max Gust Speed -    
Visibility 5.1 miles    
Events      
Averages and records for this station are not official NWS values.
T = Trace of Precipitation, MM = Missing Value Source: Averaged Metar Reports

Daily Weather History Graph

Daily Weather History Graph

Search for Another Location

Airport or City:

Astronomy

May. 19, 2013 Rise Set
Actual Time 5:02 AM EET 6:51 PM EET
Civil Twilight 4:35 AM EET 7:18 PM EET
Nautical Twilight 4:03 AM EET 7:50 PM EET
Astronomical Twilight 3:28 AM EET 8:25 PM EET
Moon 12:58 PM EET (5/19) 12:50 AM EET (5/19)
Length of Visible Light 14h 43m
Length of Day
13h 49m
Waxing Gibbous, 62% of the Moon is Illuminated
May 19
Waxing Gibbous
May 25
Full
May 31
Last Quarter
Jun 8
New
Jun 16
First Quarter

Hourly Weather History & Observations

Time (EET) Temp. Heat Index Dew Point Humidity Pressure Visibility Wind Dir Wind Speed Gust Speed Precip Events Conditions
12:00 AM 73.4 °F - 68.0 °F 83% 29.95 in - ENE 5.8 mph - N/A   Clear
1:00 AM 73.4 °F - 68.0 °F 83% 29.92 in - East 3.5 mph - N/A   Clear
2:00 AM 73 °F - 67 °F 76% 29.90 in 6 mi East 4.6 mph - -  
2:00 AM 73.4 °F - 66.2 °F 78% 29.89 in - East 4.6 mph - N/A   Clear
3:00 AM 71.6 °F - 64.4 °F 78% 29.89 in - Calm Calm - N/A   Clear
4:00 AM 68.0 °F - 62.6 °F 83% 29.86 in - ESE 3.5 mph - N/A   Clear
5:00 AM 68.0 °F - 60.8 °F 78% 29.86 in - Calm Calm - N/A   Clear
6:00 AM 68.0 °F - 60.8 °F 78% 29.89 in - SE 2.3 mph - N/A   Clear
7:00 AM 71.6 °F - 60.8 °F 69% 29.92 in 3.7 mi SE 2.3 mph - N/A   Unknown
8:00 AM 76 °F - 60 °F 49% 29.94 in 4 mi SE 6.9 mph - -   Haze
8:00 AM 75.2 °F - 60.8 °F 61% 29.92 in 3.7 mi SE 6.9 mph - N/A   Unknown
9:00 AM 80.6 °F 80.8 °F 57.2 °F 45% 29.92 in - SE 8.1 mph - N/A   Clear
10:00 AM 82.4 °F 83.4 °F 62.6 °F 51% 29.95 in 6.2 mi NW 11.5 mph - N/A   Scattered Clouds
11:00 AM 84.2 °F 85.0 °F 62.6 °F 48% 29.95 in - NW 6.9 mph - N/A   Clear
12:00 PM 89.6 °F 88.9 °F 59.0 °F 36% 29.92 in - NNW 4.6 mph - N/A   Clear
1:00 PM 93.2 °F 92.6 °F 59.0 °F 32% 29.86 in - ESE 4.6 mph - N/A   Clear
2:00 PM 95 °F - 59 °F 21% 29.83 in 6 mi SSE 6.9 mph - -   Clear
2:00 PM 95.0 °F 94.4 °F 59.0 °F 30% 29.83 in - SSE 6.9 mph - N/A   Clear
3:00 PM 96.8 °F 97.1 °F 60.8 °F 30% 29.83 in - NW 11.5 mph - N/A   Clear
4:00 PM 95.0 °F 96.0 °F 62.6 °F 34% 29.83 in - NW 19.6 mph - N/A   Clear
5:00 PM 80.6 °F 83.2 °F 68.0 °F 65% 29.86 in - NW 23.0 mph - N/A   Clear
6:00 PM 75.2 °F - 66.2 °F 73% 29.86 in - NNW 18.4 mph - N/A   Clear
7:00 PM 73.4 °F - 68.0 °F 83% 29.86 in - NNW 17.3 mph - N/A   Clear
8:00 PM 73 °F - 67 °F 77% 29.88 in 6 mi NW 15.0 mph - -   Clear
8:00 PM 73.4 °F - 68.0 °F 83% 29.86 in - NW 15.0 mph - N/A   Clear
9:00 PM 71.6 °F - 68.0 °F 88% 29.89 in - NW 13.8 mph - N/A   Clear
10:00 PM 71.6 °F - 68.0 °F 88% 29.89 in - NW 11.5 mph - N/A   Clear
11:00 PM 71.6 °F - 68.0 °F 88% 29.92 in - NW 13.8 mph - N/A   Clear